Wind_Speed
28 27 27 28 29 31 32 33 34 36 38 40 42 44 44 45 47 49 50 53 56 59 62 64 66 66 69 72 72 72 71 69 65
27 28 29 31 33 34 35 36 38 40 41 43 44 46 47 47 50 52 54 56 58 63 66 67 68 71 72 72 71 71 65 63 62
32 33 34 34 36 37 38 41 42 43 44 46 48 49 51 52 54 55 59 60 63 67 70 72 72 75 74 72 72 65 61 61 59
36 37 38 39 40 40 41 43 45 46 48 50 51 54 56 57 59 60 62 64 68 70 73 73 73 74 72 70 68 62 63 60 57
39 39 41 42 43 45 46 47 48 50 51 53 55 57 59 60 61 62 65 68 69 70 72 75 73 71 69 68 63 61 61 58 54
43 43 44 46 47 48 49 50 52 52 55 56 58 59 61 60 64 67 69 70 70 73 76 75 71 68 67 65 62 60 57 54 51
46 46 48 49 51 52 53 53 54 56 58 59 59 59 63 65 67 68 69 71 72 76 77 73 72 68 66 64 59 57 54 51 49
49 51 52 53 54 53 54 56 58 59 58 58 60 63 66 68 67 70 72 74 75 77 76 73 69 68 65 64 60 56 51 50 51
53 54 55 57 57 55 58 58 59 59 61 63 65 68 70 72 70 73 76 78 77 77 75 72 69 68 65 63 59 58 52 53 53
56 58 58 57 59 58 59 60 62 64 66 69 70 72 72 75 77 78 80 82 82 78 75 70 68 68 65 63 61 58 56 55 55
61 60 61 61 60 62 63 65 66 66 69 72 75 75 76 79 83 85 85 85 82 76 72 67 70 68 65 65 62 61 59 58 58
65 64 64 64 64 66 67 67 71 73 74 75 78 79 80 83 87 88 87 84 80 76 71 68 69 68 67 67 64 62 61 60 61
69 69 69 68 70 69 71 72 74 75 77 79 81 84 86 87 88 88 87 81 78 75 70 70 70 67 67 68 69 64 62 62 64
74 73 73 72 73 75 75 76 77 79 81 83 86 89 90 89 89 87 83 80 76 74 71 70 69 70 69 71 72 68 65 67 67
76 76 76 77 77 78 79 80 82 84 86 87 88 90 91 90 91 87 81 78 76 72 72 71 69 71 72 74 74 72 70 72 71
76 79 79 79 80 82 82 84 86 89 90 90 89 90 90 88 90 85 81 78 75 76 75 74 74 73 77 77 77 74 75 75 74
83 83 82 83 85 86 88 90 91 92 91 94 95 93 92 91 88 83 80 79 78 79 78 79 80 81 80 82 77 76 78 77 77
87 87 87 87 88 90 92 93 94 96 96 100 101 98 92 91 87 86 83 82 80 84 83 85 86 85 84 79 77 79 80 82 79
89 88 90 91 93 94 95 97 99 99 99 99 99 99 95 89 85 86 86 89 90 88 88 90 89 87 84 80 78 81 84 79 81
89 90 91 95 96 99 100 102 102 97 99 100 101 99 96 92 91 91 93 94 95 92 93 94 93 88 81 78 81 82 79 78 74
Wind_Direction
272 276 278 278 281 284 289 293 294 298 298 301 302 302 303 305 304 303 305 304 306 307 307 309 311 312 312 314 313 315 313 308 303
273 275 277 282 287 292 293 294 297 298 300 301 301 300 300 301 301 302 304 305 305 308 310 311 311 316 319 320 319 317 311 308 306
277 279 281 284 289 293 294 293 295 297 298 298 297 298 300 302 301 303 306 306 308 310 312 313 316 319 320 320 321 315 312 310 310
275 278 282 285 289 291 292 293 294 294 296 296 297 299 299 303 305 305 307 308 310 312 314 318 319 322 322 319 318 314 314 314 313
276 280 284 286 286 287 289 293 294 295 295 296 297 300 302 305 304 305 306 309 312 315 319 322 319 320 319 316 315 313 315 316 315
278 281 284 286 288 290 292 292 294 293 295 296 299 301 303 305 306 308 309 312 314 316 321 320 319 315 314 315 314 316 318 319 320
281 285 286 289 292 292 292 291 292 295 296 300 302 302 302 304 306 309 312 315 316 319 320 318 316 313 313 313 312 314 318 324 329
283 286 290 292 293 292 293 293 296 297 298 299 299 300 303 306 310 311 314 316 318 319 318 315 311 311 313 313 313 316 319 325 333
285 288 291 292 292 292 294 295 296 297 298 300 301 303 305 308 309 312 314 318 318 317 314 311 308 311 314 313 316 317 319 326 330
286 288 291 291 292 292 295 296 297 298 298 299 301 304 307 309 310 312 313 316 317 314 311 308 306 310 313 313 314 318 321 325 328
286 288 290 291 292 293 295 295 296 297 299 301 303 305 306 308 310 312 314 315 315 310 307 303 305 309 311 313 315 317 319 320 324
285 289 290 291 291 294 295 296 296 297 299 302 305 307 309 310 311 312 313 312 309 306 303 301 306 308 309 312 313 314 315 316 318
285 288 290 290 291 292 294 296 297 299 301 303 306 307 308 309 309 309 311 310 305 302 302 303 306 307 307 309 312 310 311 311 313
284 287 289 288 290 291 294 296 298 299 301 304 306 306 308 307 308 307 306 304 301 299 300 302 303 305 306 308 309 308 308 309 310
284 285 287 288 290 292 294 296 298 299 300 303 304 304 305 305 306 305 301 300 298 297 299 300 301 303 304 305 306 306 307 307 309
281 285 287 288 291 293 295 297 298 300 301 302 302 302 304 303 303 301 298 298 297 297 298 299 300 301 303 303 304 302 304 305 306
282 285 287 288 291 294 295 296 298 299 300 302 302 302 303 301 300 297 295 294 295 297 296 296 299 301 301 303 302 301 301 303 303
281 284 286 288 290 293 294 296 297 299 300 301 302 302 302 300 296 293 293 294 294 293 296 298 300 301 300 300 298 298 300 303 301
281 283 286 289 290 292 294 294 297 299 300 301 299 301 300 297 293 293 292 294 295 296 297 299 299 298 298 296 297 298 298 298 298
280 284 285 287 291 291 293 296 299 299 299 298 297 299 295 291 290 291 292 294 295 296 296 297 297 296 294 295 296 296 297 299 293
Height
10924 10924 10925 10925 10925 10924 10923 10922 10921 10920 10918 10916 10914 10913 10910 10908 10904 10901 10898 10894 10890 10885 10882 10876 10870 10864 10857 10851 10844 10836 10829 10821 10816
10920 10920 10920 10920 10920 10919 10917 10917 10916 10915 10912 10910 10908 10906 10904 10902 10897 10894 10891 10886 10881 10876 10872 10866 10860 10851 10844 10837 10830 10822 10815 10808 10802
10914 10915 10915 10914 10914 10913 10912 10911 10910 10908 10906 10904 10901 10899 10897 10894 10891 10886 10883 10878 10873 10868 10862 10855 10847 10841 10833 10824 10817 10810 10803 10797 10791
10908 10908 10908 10908 10907 10906 10905 10904 10903 10901 10899 10897 10894 10891 10888 10886 10881 10878 10875 10870 10864 10857 10850 10843 10835 10828 10820 10813 10806 10799 10793 10786 10780
10901 10901 10901 10901 10900 10899 10898 10897 10895 10894 10891 10889 10886 10883 10877 10877 10874 10870 10865 10860 10854 10847 10840 10832 10824 10817 10810 10803 10796 10789 10783 10777 10771
10894 10895 10895 10894 10892 10891 10890 10889 10887 10885 10883 10880 10877 10873 10869 10868 10862 10858 10854 10849 10844 10838 10830 10823 10815 10807 10801 10794 10787 10780 10773 10767 10762
10887 10887 10887 10886 10885 10883 10882 10880 10878 10876 10873 10870 10867 10864 10859 10858 10853 10847 10843 10837 10832 10826 10820 10813 10806 10799 10793 10785 10779 10773 10765 10758 10752
10879 10879 10879 10878 10876 10874 10873 10871 10869 10867 10864 10861 10858 10855 10849 10845 10843 10836 10831 10826 10821 10815 10808 10803 10796 10789 10784 10777 10770 10765 10758 10752 10746
10871 10871 10870 10869 10868 10866 10864 10861 10859 10857 10854 10850 10847 10844 10838 10833 10830 10825 10820 10814 10809 10802 10796 10792 10786 10780 10773 10767 10761 10755 10750 10744 10739
10862 10861 10861 10860 10858 10857 10854 10852 10850 10846 10842 10839 10836 10832 10827 10818 10814 10814 10807 10802 10796 10790 10783 10778 10773 10768 10762 10756 10751 10746 10740 10735 10730
10851 10852 10851 10849 10848 10846 10844 10841 10838 10836 10830 10825 10821 10819 10817 10808 10800 10798 10793 10787 10782 10776 10771 10765 10760 10756 10750 10745 10740 10734 10729 10724 10720
10842 10841 10841 10839 10837 10834 10832 10830 10825 10823 10819 10815 10809 10805 10802 10796 10788 10781 10778 10773 10768 10762 10757 10751 10747 10741 10736 10732 10728 10722 10717 10713 10710
10830 10830 10829 10827 10825 10823 10819 10817 10814 10809 10806 10802 10797 10791 10787 10784 10773 10765 10760 10758 10752 10746 10742 10736 10732 10726 10721 10717 10714 10711 10707 10702 10697
10820 10819 10818 10817 10814 10810 10809 10805 10801 10797 10794 10790 10784 10776 10772 10767 10763 10753 10747 10740 10738 10733 10727 10724 10718 10712 10707 10702 10698 10695 10693 10688 10684
10809 10806 10806 10805 10802 10798 10795 10792 10788 10784 10781 10777 10771 10764 10756 10749 10743 10741 10734 10727 10721 10718 10712 10709 10705 10700 10694 10688 10683 10678 10675 10673 10668
10796 10795 10793 10792 10789 10785 10782 10778 10773 10769 10765 10762 10756 10751 10742 10735 10728 10724 10721 10714 10708 10703 10697 10692 10690 10686 10679 10673 10668 10663 10660 10655 10652
10784 10782 10780 10778 10775 10770 10766 10762 10759 10754 10749 10744 10741 10735 10728 10717 10713 10708 10704 10700 10696 10688 10683 10678 10674 10672 10665 10659 10652 10647 10642 10638 10634
10770 10769 10766 10764 10762 10757 10752 10747 10742 10737 10733 10727 10721 10717 10712 10704 10695 10689 10686 10682 10678 10675 10669 10663 10658 10654 10650 10643 10637 10632 10626 10620 10614
10759 10755 10751 10748 10746 10743 10737 10732 10727 10722 10714 10711 10701 10696 10695 10689 10683 10672 10664 10661 10658 10654 10652 10646 10641 10636 10632 10626 10620 10616 10608 10602 10596
10745 10741 10739 10735 10728 10725 10721 10717 10712 10706 10699 10690 10686 10679 10673 10669 10666 10662 10651 10641 10637 10635 10630 10626 10621 10617 10613 10610 10603 10597 10589 10581 10578